• In Romania
  • List of Countries
  • For 7 days
  • Water Temperature
  • Satellite Maps
  • Weather Map
  • Weather Widgets
  • user-avatar
    Login

    Hourly Weather Ali Bayramli

    Today, 24 July, Monday

    Time Temperature Precipitation Wind Pressure Humidity
    00:00 +32°C° 0 mm 8 mps 754 mmHg 50%
    01:00 +30°C° 0 mm 7 mps 754 mmHg 53%
    02:00 +29°C° 0 mm 7 mps 754 mmHg 56%
    03:00 +29°C° 0 mm 7 mps 754 mmHg 58%
    04:00 +29°C° 0 mm 7 mps 754 mmHg 58%
    05:00 +29°C° 0 mm 6 mps 755 mmHg 58%
    06:00 +29°C° 0 mm 6 mps 755 mmHg 58%
    07:00 +32°C° 0 mm 6 mps 755 mmHg 52%
    08:00 +33°C° 0 mm 6 mps 755 mmHg 47%
    09:00 +34°C° 0 mm 6 mps 755 mmHg 41%
    10:00 +35°C° 0 mm 6 mps 755 mmHg 38%
    11:00 +36°C° 0 mm 7 mps 754 mmHg 35%
    12:00 +38°C° 0 mm 7 mps 754 mmHg 33%
    13:00 +38°C° 0 mm 8 mps 754 mmHg 33%
    14:00 +38°C° 0 mm 9 mps 754 mmHg 33%
    15:00 +38°C° 0 mm 9 mps 753 mmHg 33%
    16:00 +37°C° 0 mm 9 mps 753 mmHg 35%
    17:00 +35°C° 0 mm 9 mps 753 mmHg 37%
    18:00 +34°C° 0 mm 9 mps 753 mmHg 39%
    19:00 +33°C° 0 mm 8 mps 753 mmHg 41%
    20:00 +32°C° 0 mm 8 mps 753 mmHg 44%
    21:00 +30°C° 0 mm 7 mps 754 mmHg 46%
    22:00 +30°C° 0 mm 6 mps 754 mmHg 48%
    23:00 +29°C° 0 mm 6 mps 753 mmHg 50%

    Tomorrow, 25 July, Tuesday

    Time Temperature Precipitation Wind Pressure Humidity
    00:00 +29°C° 0 mm 5 mps 753 mmHg 52%
    01:00 +28°C° 0 mm 4 mps 753 mmHg 54%
    02:00 +28°C° 0 mm 4 mps 753 mmHg 56%
    03:00 +28°C° 0 mm 4 mps 753 mmHg 57%
    04:00 +28°C° 0 mm 4 mps 753 mmHg 58%
    05:00 +28°C° 0 mm 3 mps 753 mmHg 59%
    06:00 +28°C° 0 mm 3 mps 753 mmHg 59%
    07:00 +29°C° 0 mm 3 mps 753 mmHg 53%
    08:00 +31°C° 0 mm 3 mps 753 mmHg 47%
    09:00 +32°C° 0 mm 2 mps 753 mmHg 42%
    10:00 +35°C° 0 mm 2 mps 752 mmHg 37%
    11:00 +36°C° 0 mm 2 mps 752 mmHg 33%
    12:00 +37°C° 0 mm 2 mps 751 mmHg 29%
    13:00 +38°C° 0 mm 3 mps 751 mmHg 28%
    14:00 +38°C° 0 mm 4 mps 751 mmHg 27%
    15:00 +40°C° 0 mm 5 mps 750 mmHg 26%
    16:00 +39°C° 0 mm 5 mps 750 mmHg 28%
    17:00 +38°C° 0 mm 6 mps 750 mmHg 31%
    18:00 +36°C° 0 mm 7 mps 750 mmHg 33%
    19:00 +35°C° 0 mm 6 mps 751 mmHg 37%
    20:00 +34°C° 0 mm 5 mps 751 mmHg 41%
    21:00 +32°C° 0 mm 5 mps 751 mmHg 44%
    22:00 +32°C° 0 mm 4 mps 751 mmHg 47%
    23:00 +30°C° 0 mm 3 mps 751 mmHg 49%

    Day after tomorrow, 26 July, Wednesday

    Time Temperature Precipitation Wind Pressure Humidity
    00:00 +30°C° 0 mm 3 mps 751 mmHg 52%
    01:00 +29°C° 0 mm 3 mps 751 mmHg 54%
    02:00 +29°C° 0 mm 2 mps 751 mmHg 55%
    03:00 +28°C° 0 mm 2 mps 751 mmHg 57%
    04:00 +28°C° 0 mm 2 mps 751 mmHg 56%
    05:00 +29°C° 0 mm 2 mps 751 mmHg 54%
    06:00 +29°C° 0 mm 2 mps 751 mmHg 53%
    07:00 +31°C° 0 mm 2 mps 751 mmHg 47%
    08:00 +32°C° 0 mm 2 mps 752 mmHg 41%
    09:00 +35°C° 0 mm 2 mps 752 mmHg 35%
    10:00 +36°C° 0 mm 2 mps 752 mmHg 32%
    11:00 +38°C° 0 mm 2 mps 751 mmHg 29%
    12:00 +39°C° 0 mm 1 mps 751 mmHg 25%
    13:00 +40°C° 0 mm 2 mps 751 mmHg 25%
    14:00 +40°C° 0 mm 3 mps 751 mmHg 25%
    15:00 +41°C° 0 mm 5 mps 750 mmHg 24%
    16:00 +40°C° 0 mm 5 mps 751 mmHg 27%
    17:00 +39°C° 0 mm 6 mps 751 mmHg 29%
    18:00 +38°C° 0 mm 7 mps 751 mmHg 31%
    19:00 +36°C° 0 mm 6 mps 752 mmHg 34%
    20:00 +35°C° 0 mm 5 mps 752 mmHg 36%
    21:00 +34°C° 0 mm 5 mps 753 mmHg 38%
    22:00 +33°C° 0 mm 4 mps 753 mmHg 39%
    23:00 +33°C° 0 mm 4 mps 753 mmHg 41%

    27 July, Thursday

    Time Temperature Precipitation Wind Pressure Humidity
    00:00 +31°C° 0 mm 3 mps 753 mmHg 42%
    01:00 +31°C° 0 mm 3 mps 753 mmHg 43%
    02:00 +30°C° 0 mm 3 mps 753 mmHg 44%
    03:00 +30°C° 0 mm 2 mps 753 mmHg 45%
    04:00 +30°C° 0 mm 2 mps 753 mmHg 44%
    05:00 +30°C° 0 mm 2 mps 753 mmHg 43%
    06:00 +31°C° 0 mm 2 mps 753 mmHg 42%
    07:00 +34°C° 0 mm 2 mps 754 mmHg 38%
    08:00 +35°C° 0 mm 2 mps 754 mmHg 34%
    09:00 +37°C° 0 mm 3 mps 754 mmHg 29%
    10:00 +38°C° 0 mm 2 mps 754 mmHg 27%
    11:00 +40°C° 0 mm 2 mps 753 mmHg 25%
    12:00 +41°C° 0 mm 1 mps 753 mmHg 22%
    13:00 +42°C° 0 mm 3 mps 753 mmHg 22%
    14:00 +43°C° 0 mm 4 mps 753 mmHg 22%
    15:00 +43°C° 0 mm 5 mps 753 mmHg 22%
    16:00 +42°C° 0 mm 5 mps 753 mmHg 24%
    17:00 +40°C° 0 mm 6 mps 753 mmHg 26%
    18:00 +39°C° 0 mm 6 mps 753 mmHg 29%
    19:00 +38°C° 0 mm 6 mps 754 mmHg 31%
    20:00 +36°C° 0 mm 5 mps 754 mmHg 33%
    21:00 +35°C° 0 mm 4 mps 754 mmHg 35%
    22:00 +34°C° 0 mm 3 mps 754 mmHg 37%
    23:00 +32°C° 0 mm 2 mps 754 mmHg 39%

    28 July, Friday

    Time Temperature Precipitation Wind Pressure Humidity
    00:00 +32°C° 0 mm 2 mps 754 mmHg 41%
    01:00 +31°C° 0 mm 2 mps 754 mmHg 42%
    02:00 +31°C° 0 mm 1 mps 754 mmHg 43%
    03:00 +30°C° 0 mm 1 mps 754 mmHg 44%
    04:00 +31°C° 0 mm 1 mps 754 mmHg 43%
    05:00 +31°C° 0 mm 1 mps 754 mmHg 42%
    06:00 +32°C° 0 mm 1 mps 755 mmHg 40%
    07:00 +33°C° 0 mm 1 mps 754 mmHg 37%
    08:00 +35°C° 0 mm 1 mps 754 mmHg 33%
    09:00 +37°C° 0 mm 1 mps 754 mmHg 29%
    10:00 +39°C° 0 mm 1 mps 754 mmHg 26%
    11:00 +40°C° 0 mm 2 mps 754 mmHg 24%
    12:00 +42°C° 0 mm 2 mps 753 mmHg 22%
    13:00 +43°C° 0 mm 3 mps 753 mmHg 21%
    14:00 +43°C° 0 mm 4 mps 753 mmHg 21%
    15:00 +45°C° 0 mm 5 mps 753 mmHg 20%
    16:00 +43°C° 0 mm 5 mps 753 mmHg 22%
    17:00 +41°C° 0 mm 5 mps 753 mmHg 24%
    18:00 +40°C° 0 mm 6 mps 753 mmHg 26%
    19:00 +39°C° 0 mm 5 mps 753 mmHg 31%
    20:00 +36°C° 0 mm 4 mps 754 mmHg 35%
    21:00 +34°C° 0 mm 3 mps 754 mmHg 40%
    22:00 +32°C° 0 mm 2 mps 754 mmHg 43%
    23:00 +32°C° 0 mm 2 mps 754 mmHg 46%

    29 July, Saturday

    Time Temperature Precipitation Wind Pressure Humidity
    00:00 +31°C° 0 mm 1 mps 754 mmHg 49%
    01:00 +31°C° 0 mm 1 mps 754 mmHg 51%
    02:00 +30°C° 0 mm 1 mps 754 mmHg 53%
    03:00 +28°C° 0 mm 0 mps 754 mmHg 55%
    04:00 +30°C° 0 mm 1 mps 754 mmHg 53%
    05:00 +31°C° 0 mm 1 mps 754 mmHg 51%
    06:00 +31°C° 0 mm 1 mps 754 mmHg 49%
    07:00 +33°C° 0 mm 1 mps 754 mmHg 43%
    08:00 +35°C° 0 mm 1 mps 754 mmHg 38%
    09:00 +36°C° 0 mm 1 mps 754 mmHg 32%
    10:00 +39°C° 0 mm 2 mps 754 mmHg 29%
    11:00 +40°C° 0 mm 3 mps 754 mmHg 27%
    12:00 +42°C° 0 mm 3 mps 754 mmHg 24%
    13:00 +43°C° 0 mm 4 mps 753 mmHg 24%
    14:00 +43°C° 0 mm 5 mps 753 mmHg 24%
    15:00 +43°C° 0 mm 5 mps 753 mmHg 24%
    16:00 +42°C° 0 mm 5 mps 753 mmHg 25%
    17:00 +41°C° 0 mm 5 mps 752 mmHg 27%
    18:00 +39°C° 0 mm 5 mps 752 mmHg 29%
    19:00 +37°C° 0 mm 5 mps 753 mmHg 34%
    20:00 +35°C° 0 mm 4 mps 753 mmHg 39%
    21:00 +33°C° 0 mm 3 mps 753 mmHg 44%
    22:00 +32°C° 0 mm 2 mps 753 mmHg 46%
    23:00 +31°C° 0 mm 2 mps 753 mmHg 48%
    Show more